Flag for Germany Weather past 2 weeks in Strausberg, Brandenburg, Germany

Now
54 °F

Passing clouds.


Feels Like: 52 °F
Forecast: 47 / 67 °F
Wind: 6 mph from Southwest

Location: Berlin-Schoenefeld

Current Time: Apr 26, 2015 at 8:37:55 AM

Latest Report: Apr 26, 2015 at 8:20 AM


Visibility: N/A

Pressure: 29.77 "Hg

Humidity: 94%

Dew point: 52 °F

Location of StrausbergLocation

Historic Weather in Strausberg — Graph

°F

Strausberg temperature yesterday

Maximum temperature yesterday: 73 °F (at 1:20 PM)
Minimum temperature yesterday: 45 °F (at 6:20 AM)
Average temperature yesterday: 60 °F

Past Weeks' High & Low Weather Summary

 TemperatureHumidityPressure
High73 °F (Apr 25, 1:20 PM)100% (Apr 23, 5:20 AM)30.42 "Hg (Apr 23, 5:20 AM)
Low30 °F (Apr 14, 6:20 AM)21% (Apr 21, 2:50 PM)29.71 "Hg (Apr 25, 3:20 PM)
Average51 °F59%30.10 "Hg
* Reported Apr 11 7:20 AM — Apr 26 7:20 AM, Strausberg, Weather by CustomWeather, © 2015

Note: Actual official high and low records may vary slightly from our data, if they occured in-between our weather recording intervals... More about our weather records

Advertising

Strausberg weather history for previous 24 hours

 ConditionsComfort  
Time TempWeatherWind HumidityBarometerVisibility
7:20 AM
Sun, Apr 26
54 °FPartly sunny.5 mph94%29.77 "HgN/A
6:50 AM52 °FBroken clouds.3 mph100%29.77 "HgN/A
6:20 AM52 °FFog.3 mph94%29.77 "HgN/A
5:50 AM48 °FFog.3 mph100%29.77 "HgN/A
5:20 AM50 °FPassing clouds.6 mph100%29.74 "HgN/A
4:50 AM50 °FPassing clouds.6 mph100%29.74 "HgN/A
4:20 AM52 °FPassing clouds.5 mph100%29.74 "HgN/A
3:50 AM54 °FPartly cloudy.5 mph94%29.77 "HgN/A
3:20 AM52 °FPassing clouds.No wind94%29.74 "HgN/A
2:50 AM54 °FPassing clouds.5 mph94%29.74 "Hg5 mi
2:20 AM55 °FPartly cloudy.9 mph82%29.74 "HgN/A
1:50 AM55 °FPassing clouds.7 mph82%29.74 "HgN/A
1:20 AM55 °FPassing clouds.No wind82%29.74 "HgN/A
12:50 AM55 °FLight rain. Passing clouds.8 mph82%29.74 "HgN/A
12:20 AM57 °FPassing clouds.6 mph72%29.74 "HgN/A
11:20 PM
Sat, Apr 25
59 °FClear.10 mph68%29.74 "Hg10 mi
10:50 PM59 °FClear.7 mph68%29.74 "Hg10 mi
10:20 PM57 °FClear.7 mph67%29.74 "Hg10 mi
9:50 PM57 °FClear.9 mph67%29.74 "Hg10 mi
9:20 PM59 °FClear.9 mph63%29.74 "Hg10 mi
8:50 PM61 °FSunny.6 mph59%29.74 "Hg10 mi
8:20 PM59 °FSunny.No wind68%29.71 "Hg10 mi
7:50 PM61 °FSunny.No wind63%29.71 "Hg10 mi
7:20 PM63 °FLight rain. Clear.2 mph52%29.71 "HgN/A
6:50 PM61 °FLight rain. Clear.5 mph63%29.74 "HgN/A
6:20 PM64 °FLight rain. Clear.15 mph49%29.74 "HgN/A
5:50 PM66 °FSunny.23 mph37%29.71 "Hg10 mi
5:20 PM70 °FSunny.14 mph29%29.71 "Hg10 mi
4:50 PM70 °FSunny.10 mph29%29.71 "Hg10 mi
4:20 PM72 °FSunny.12 mph29%29.71 "Hg10 mi
3:50 PM72 °FSunny.15 mph25%29.71 "Hg10 mi
3:20 PM72 °FSunny.14 mph27%29.71 "Hg10 mi
2:50 PM72 °FPassing clouds.13 mph27%29.74 "HgN/A
2:20 PM73 °FSunny.15 mph23%29.74 "Hg10 mi
1:50 PM72 °FPassing clouds.14 mph29%29.74 "HgN/A
1:20 PM73 °FPassing clouds.15 mph27%29.74 "HgN/A
12:50 PM70 °FSunny.15 mph31%29.77 "Hg10 mi
12:20 PM68 °FSunny.12 mph35%29.77 "Hg10 mi
11:50 AM68 °FSunny.12 mph35%29.77 "Hg10 mi
11:20 AM68 °FSunny.10 mph38%29.77 "Hg10 mi
10:50 AM66 °FSunny.10 mph40%29.80 "Hg10 mi
10:20 AM64 °FSunny.9 mph40%29.80 "Hg10 mi
9:50 AM63 °FPassing clouds.7 mph45%29.80 "HgN/A
9:20 AM59 °FSunny.8 mph51%29.80 "Hg10 mi
8:50 AM57 °FPassing clouds.6 mph55%29.80 "HgN/A
8:20 AM55 °FPassing clouds.6 mph59%29.80 "HgN/A
Weather by CustomWeather, © 2015

See weather overviewHow to use our weather pages